Вернуться в каталог

CZ-2D DEB

АктивенSSO
NORAD 38299·DEBRIS·🇨🇳 China

Запущен Jun 15, 2010 с Jiuquan Satellite Launch Center

Loading…

Ближайшие Пролёты (ближайшие 24 часа)

TLE

СвежийSource: Space-Track

Эпоха: Sep 14, 2026, 09:55 UTC

1 38299U 10027D   26257.41331671  .00057946  00000-0  12879-2 0  9999
2 38299  97.6323 128.1860 0042217  30.0247 330.3407 15.42519872864766

Отслеживайте CZ-2D DEB в реальном времени с AllMySat

Download on the App Store